Terminal Aerodrome Forecast
Issued by NWS Billings, MT

Home | Current Version | Previous Version | Text Only | Print | Product List | Glossary On
Versions: 1 2 3 4 5 6 7 8 9 10 11 12 13 14 15 16 17 18 19 20 21 22 23 24 25 26 27 28 29 30 31 32 33 34 35 36 37 38 39 40 41 42 43 44
000
FTUS45 KBYZ 260207 AAA
TAFSHR
TAF AMD
KSHR 260207Z 2602/2624 30014G24KT P6SM -SN OVC035
     FM260600 16004KT 2SM -SN BR SCT015 OVC020
     FM261400 15004KT 4SM -SN BR SCT020 OVC040
     FM261800 16004KT P6SM VCSH SCT030 OVC060=

USA.gov is the U.S. government's official web portal to all federal, state and local government web resources and services.